Oxford, NC

3:38 AM EST on November 12, 2019 (GMT -0500)
Henderson-Oxford

Weather History for KHNZ - July, 2019

Change the Weather History Date:

Sunday, July 14, 2019

  Actual Average (WUND) Record (WUND)
Temperature  
Mean Temperature 80 °F -  
Max Temperature 91 °F - - (-1)
Min Temperature 70 °F - - (-1)
Cooling Degree Days 16    
Growing Degree Days 30 (Base 50)    
Moisture  
Dew Point 66 °F    
Average Humidity 67    
Maximum Humidity 96    
Minimum Humidity 40    
Precipitation  
Precipitation 0.00 in - - ()
Sea Level Pressure  
Sea Level Pressure 30.05 in    
Wind  
Wind Speed 3 mph (NW)    
Max Wind Speed 10 mph    
Max Gust Speed -    
Visibility 10 miles    
Events      
Averages and records for this station are not official NWS values.
T = Trace of Precipitation, MM = Missing Value Source: NWS Daily Summary

Daily Weather History Graph

Daily Weather History Graph

Search for Another Location

Airport or City:

Astronomy

Jul. 14, 2019 Rise Set
Actual Time 6:07 AM EDT 8:32 PM EDT
Civil Twilight 5:37 AM EDT 9:02 PM EDT
Nautical Twilight 5:00 AM EDT 9:38 PM EDT
Astronomical Twilight 4:20 AM EDT 10:19 PM EDT
Moon 6:53 PM EDT (7/14) 4:06 AM EDT (7/14)
Length of Visible Light 15h 24m
Length of Day
14h 25m
Waxing Gibbous, 95% of the Moon is Illuminated
Jul 14
Waxing Gibbous
Jul 16
Full
Jul 24
Last Quarter
Jul 31
New
Aug 7
First Quarter

Hourly Weather History & Observations

Time (EDT) Temp. Heat Index Dew Point Humidity Pressure Visibility Wind Dir Wind Speed Gust Speed Precip Events Conditions
12:15 AM 72.0 °F - 67.5 °F 86% 30.03 in 10.0 mi SSW 3.5 mph - N/A   Clear
12:35 AM 70.7 °F - 67.3 °F 89% 30.03 in 10.0 mi SSW 3.5 mph - N/A   Clear
12:55 AM 70.9 °F - 68.0 °F 91% 30.02 in 10.0 mi SSW 3.5 mph - N/A   Clear
1:15 AM 73.2 °F - 67.5 °F 82% 30.02 in 10.0 mi WSW 3.5 mph - N/A   Clear
1:35 AM 71.2 °F - 67.8 °F 89% 30.02 in 10.0 mi SW 3.5 mph - N/A   Clear
1:55 AM 70.9 °F - 68.0 °F 91% 30.02 in 10.0 mi SSW 3.5 mph - N/A   Clear
2:15 AM 71.1 °F - 68.0 °F 90% 30.01 in 10.0 mi Calm Calm - N/A   Clear
2:35 AM 70.5 °F - 68.2 °F 92% 30.01 in 10.0 mi Calm Calm - N/A   Clear
2:55 AM 70.5 °F - 68.4 °F 93% 30.01 in 10.0 mi Calm Calm - N/A   Clear
3:15 AM 70.0 °F - 68.5 °F 95% 30.01 in 10.0 mi Calm Calm - N/A   Clear
3:35 AM 71.1 °F - 69.4 °F 95% 30.01 in 10.0 mi Calm Calm - N/A   Clear
3:55 AM 70.9 °F - 69.1 °F 94% 30.00 in 10.0 mi Calm Calm - N/A   Clear
4:15 AM 70.9 °F - 69.3 °F 95% 30.01 in 10.0 mi Calm Calm - N/A   Clear
4:35 AM 70.9 °F - 69.1 °F 94% 30.02 in 10.0 mi Calm Calm - N/A   Clear
4:55 AM 71.6 °F - 69.8 °F 94% 30.02 in 10.0 mi Calm Calm - N/A   Clear
5:15 AM 70.9 °F - 69.4 °F 95% 30.02 in 10.0 mi Calm Calm - N/A   Clear
5:35 AM 70.7 °F - 69.4 °F 96% 30.02 in 10.0 mi Calm Calm - N/A   Clear
5:55 AM 70.5 °F - 69.3 °F 96% 30.02 in 7.0 mi Calm Calm - N/A   Clear
6:15 AM 70.0 °F - 68.9 °F 96% 30.03 in 7.0 mi Calm Calm - N/A   Clear
6:35 AM 70.0 °F - 68.9 °F 96% 30.04 in 7.0 mi Calm Calm - N/A   Clear
6:55 AM 70.7 °F - 69.4 °F 96% 30.04 in 5.0 mi Calm Calm - N/A   Clear
7:15 AM 71.4 °F - 70.0 °F 95% 30.05 in 7.0 mi Calm Calm - N/A   Clear
7:35 AM 73.8 °F - 68.9 °F 85% 30.06 in 10.0 mi Calm Calm - N/A   Clear
7:55 AM 75.4 °F - 66.9 °F 75% 30.07 in 10.0 mi NNW 6.9 mph - N/A   Clear
8:15 AM 76.8 °F - 66.7 °F 71% 30.07 in 10.0 mi Calm Calm - N/A   Clear
8:35 AM 77.9 °F - 66.0 °F 67% 30.07 in 10.0 mi Calm Calm - N/A   Clear
8:55 AM 79.0 °F - 65.3 °F 63% 30.07 in 10.0 mi Calm Calm - N/A   Clear
9:15 AM 79.5 °F - 65.7 °F 62% 30.07 in 10.0 mi North 5.8 mph - N/A   Clear
9:35 AM 80.2 °F 82.1 °F 65.1 °F 60% 30.08 in 10.0 mi North 5.8 mph - N/A   Clear
9:55 AM 82.4 °F 83.9 °F 64.4 °F 54% 30.08 in 10.0 mi North 3.5 mph - N/A   Clear
10:15 AM 83.5 °F 84.5 °F 62.8 °F 50% 30.08 in 10.0 mi North 6.9 mph - N/A   Clear
10:35 AM 84.9 °F 85.9 °F 63.0 °F 48% 30.08 in 10.0 mi NNW 5.8 mph - N/A   Clear
10:55 AM 84.9 °F 85.4 °F 61.9 °F 46% 30.09 in 10.0 mi NNW 10.4 mph - N/A   Clear
11:15 AM 85.8 °F 86.3 °F 62.2 °F 45% 30.09 in 10.0 mi NNW 9.2 mph - N/A   Clear
11:35 AM 86.0 °F 86.8 °F 63.0 °F 46% 30.09 in 10.0 mi NW 9.2 mph - N/A   Clear
11:55 AM 86.0 °F 87.1 °F 63.5 °F 47% 30.09 in 10.0 mi North 4.6 mph - N/A   Clear
12:15 PM 86.5 °F 87.6 °F 63.7 °F 46% 30.09 in 10.0 mi North 5.8 mph - N/A   Clear
12:35 PM 87.1 °F 87.5 °F 62.2 °F 43% 30.08 in 10.0 mi NNE 5.8 mph - N/A   Clear
12:55 PM 88.5 °F 89.5 °F 63.7 °F 43% 30.08 in 10.0 mi NW 6.9 mph - N/A   Clear
1:15 PM 87.8 °F 88.8 °F 63.3 °F 44% 30.08 in 10.0 mi NNW 6.9 mph - N/A   Clear
1:35 PM 88.5 °F 89.8 °F 64.0 °F 44% 30.07 in 10.0 mi Calm Calm - N/A   Clear
1:55 PM 89.4 °F 91.2 °F 64.8 °F 44% 30.06 in 10.0 mi North 5.8 mph - N/A   Clear
2:15 PM 89.4 °F 90.8 °F 64.4 °F 43% 30.06 in 10.0 mi NW 3.5 mph - N/A   Clear
2:35 PM 90.5 °F 92.2 °F 64.8 °F 42% 30.06 in 10.0 mi Calm Calm - N/A   Clear
2:55 PM 90.5 °F 92.2 °F 64.8 °F 42% 30.05 in 10.0 mi ENE 3.5 mph - N/A   Clear
3:15 PM 90.7 °F 92.4 °F 64.6 °F 42% 30.05 in 10.0 mi West 5.8 mph - N/A   Clear
3:35 PM 91.2 °F 92.5 °F 63.7 °F 40% 30.04 in 10.0 mi Calm Calm - N/A   Scattered Clouds
3:55 PM 91.6 °F 93.1 °F 63.9 °F 40% 30.04 in 10.0 mi WNW 8.1 mph - N/A   Scattered Clouds
4:15 PM 91.2 °F 92.5 °F 64.0 °F 40% 30.03 in 10.0 mi WNW 5.8 mph - N/A   Clear
4:35 PM 90.3 °F 91.9 °F 64.2 °F 42% 30.03 in 10.0 mi NNW 8.1 mph - N/A   Clear
4:55 PM 91.6 °F 93.9 °F 65.3 °F 42% 30.03 in 10.0 mi WNW 5.8 mph - N/A   Clear
5:15 PM 90.5 °F 92.2 °F 64.4 °F 42% 30.03 in 10.0 mi NNW 5.8 mph - N/A   Clear
5:35 PM 90.7 °F 92.1 °F 63.7 °F 41% 30.03 in 10.0 mi NW 4.6 mph - N/A   Clear
5:55 PM 90.0 °F 91.3 °F 63.9 °F 42% 30.03 in 10.0 mi WNW 4.6 mph - N/A   Clear
6:15 PM 89.4 °F 90.5 °F 63.7 °F 42% 30.03 in 10.0 mi Calm Calm - N/A   Clear
6:35 PM 89.4 °F 91.2 °F 64.9 °F 44% 30.03 in 10.0 mi NNW 3.5 mph - N/A   Clear
6:55 PM 88.7 °F 90.4 °F 64.6 °F 45% 30.03 in 10.0 mi NNW 5.8 mph - N/A   Clear
7:15 PM 88.0 °F 89.6 °F 64.6 °F 46% 30.03 in 10.0 mi Calm Calm - N/A   Clear
7:35 PM 87.1 °F 88.3 °F 63.9 °F 46% 30.03 in 10.0 mi Calm Calm - N/A   Clear
7:55 PM 85.8 °F 87.4 °F 64.4 °F 49% 30.03 in 10.0 mi Calm Calm - N/A   Clear
8:15 PM 81.7 °F 83.5 °F 65.3 °F 57% 30.04 in 10.0 mi Calm Calm - N/A   Clear
8:35 PM 80.6 °F 83.4 °F 68.4 °F 66% 30.04 in 10.0 mi Calm Calm - N/A   Clear
8:55 PM 78.1 °F - 66.4 °F 67% 30.04 in 10.0 mi Calm Calm - N/A   Clear
9:15 PM 76.8 °F - 66.4 °F 70% 30.05 in 10.0 mi Calm Calm - N/A   Clear
9:35 PM 76.5 °F - 66.4 °F 71% 30.05 in 10.0 mi Calm Calm - N/A   Clear
9:55 PM 74.5 °F - 67.5 °F 79% 30.06 in 10.0 mi Calm Calm - N/A   Clear
10:15 PM 74.3 °F - 66.4 °F 76% 30.06 in 10.0 mi Calm Calm - N/A   Clear
10:35 PM 74.1 °F - 67.3 °F 79% 30.07 in 10.0 mi Calm Calm - N/A   Clear
10:55 PM 71.4 °F - 68.0 °F 89% 30.07 in 10.0 mi Calm Calm - N/A   Clear
11:15 PM 72.1 °F - 68.4 °F 88% 30.07 in 10.0 mi Calm Calm - N/A   Clear
11:35 PM 70.9 °F - 68.7 °F 93% 30.07 in 10.0 mi Calm Calm - N/A   Clear
11:55 PM 70.7 °F - 68.2 °F 92% 30.07 in 10.0 mi WSW 3.5 mph - N/A   Clear